Location: Unspecified
(20.0000°S, 0.0000°E)
Time: 19:15:00
(UTC+00:00)

NUDT-PHONESAT - Pass Details

Date: 28 July 2019
Orbit: 488 x 505 km, 97.4° (Epoch: 17 August)

Event Time Altitude Azimuth Distance (km) Brightness Sun altitude
Rises 18:25:07 0° 174° (S) 2,606 ? -10.5°
Reaches altitude 10° 18:27:14 10° 177° (S) 1,713 ? -11.0°
Maximum altitude 18:30:52 61° 258° (WSW) 567 ? -11.8°
Drops below altitude 10° 18:34:26 10° 338° (NNW) 1,681 ? -12.6°
Sets 18:36:30 0° 342° (NNW) 2,553 ? -13.1°
